"Pseudo-MPEC" for A106HZo

Created 2018 Apr 18 14:18:11 UT using Find_Orb

Click here for an explanation of pseudo-MPECs

 
 Astrometry: 
     A106HZo  C2017 10 30i0Astrometry;979N,e!@cRo7l\DTNg(we^p^-EW[hhP[Yi0?Te_F51
     A106HZo  C2017 10 30q=.cdjasN!p:_@Rl?/M.wXC0G-OVMhMjwj.AR'n(dtA+L3J\:23rF51
     A106HZo  C2017 10 300Dt=M*j15mwhTX]4:!/[`[Heqcw+5a)cY0m#%ls[j5y#=2xaHGsdF51
     A106HZo  C2018 01 12WXS?a=xLd!RiHL$8Bm:Aq1u)06+1%Ot](9yEkKdF#Sn)X`KKUFvfF51
     A106HZo  C2018 01 12BZP2e;ODj#\sp[ra`\a=j0GJL'YM$FI^P[#ldH6g*/]?\x%:BbJCF51
     A106HZo  C2018 01 12dNJF.wJ.b^[e*FgAgq*Kjf#o+=lGAi2p9XXj\fjDJc/QPmZrGGvpF51
     A106HZo  C2018 01 12,mbSi,?9yQqj3]41anOptZB6[:]\jTh^puMofF7F4t4y5)N,W.`yF51
     A106HZo  C2018 04 13yA:\W*6yB-uIcji?je$TTXj],Pno6nn2bPiFAii(8Eb(eRbP1=*iT05
     A106HZo  C2018 04 13-AO76DM^l9Fw)lL5j(ERd0^L;oiy^PA4g12oI%.ok;t=Qta3s9w*T05
     A106HZo  C2018 04 13xIyGmx,Cste*,4Sevgh;_I5G\/:Ym8\l`OjFMd@lHVl23D*O*S+iT05
     A106HZo  C2018 04 13'EN89@RheRo)La+RA;xxNfBX;f31/o12C#KdUm)-c2Y$qe3dxaPtT05
     A106HZo  C2018 04 13sE!_2fo'Q[KT`icSrJp^]O/IOBg']q!1pVp(C?0NT5):$FHPqhTGT05
     A106HZo  C2018 04 13wWvtD#1oYBe5mHXf2aAGj5%j]/aVQ#(MTr14Aj0-#U8jAy1hCFG4T05
     A106HZo HC2018 04 14^VO:aEqisKFk]42'DsaH(8IS#kQ#8?aHnU/:My3REXiYDqWX%2qJ691
     A106HZo HC2018 04 14@NoqR.6mV*#@x*s1\iLQhw.,/h`B_db4Z3@h#gx-jr,tkq1/;]:)691
     A106HZo HC2018 04 14ZIii7OeP:'tn8qn%JgeyX\0BQG\Z[_I$PyD'mKEg@^]kQpB5AwL+691
     A106HZo 5C2018 04 14?#RU^g;alk`6rS;rt50W'(/QJ'Al$mQwJ^SbKHJq90af#8llHJMPU69
     A106HZo 5C2018 04 143%:FsmxJq\WZa%*Ysn@_fwwYDy]q)pP)dP*7w\bor?OYyYlr'gWnU69
     A106HZo 5C2018 04 14d.Mba0ZjZdsx;W689Ra1K6EJI7BQ$SyC;L+6?lJ*@yw87kDSVpi!U69
     A106HZo KC2018 04 14@mm=xqpw:fIh9?[cIU?RXnwVGTLj/G]d[N4XB[BCtbX7e3Wh?i\=K88
     A106HZo HC2018 04 14y]KLMZM177Fe%%-Z:*#il5Z1HkSg4i*4L/`Tj3e[$eF]D-=_7tN]246
     A106HZo HC2018 04 14/bI1TyhF]Lm7OEr-1rkUYbnq7v._W294e[ZH^`og,*fX7Q*(-dEU246
     A106HZo KC2018 04 145\RC\7!n*5YeI\#/Qredacted;$P8b=JyHU\Us'e.==+y.,Hlu[WK88
     A106HZo 9C2018 04 14Dq5.#m^;UUeT$tj3GKxUhoaB#GjoC%'AQpOTchoC4L!c=i0hg@W7G40
     A106HZo 9C2018 04 14[Sn(w%EGSov-XdVvbEc.?Rbt8s1sLYIw[%v(3k%@ICQy+vI*uU])G40
     A106HZo 9C2018 04 14;0nh\Nj_KeH.x9gr=1#pyrs]nO`+XUMCR!hlLnWN/hD[+U_!%^NyG40
     A106HZo 3C2018 04 15BBN\'`7w34*hvop-CM1qwp\L+A^=vfy#MjU:$_][5RQBuX^a)51cW88
     A106HZo 3C2018 04 15L]IG]-dYt=7!-F;e_xFt*RdTAnCRWo6MhZ-bwxc^DXJ)1p#;sug'W88
     A106HZo HC2018 04 15[$Ilt_Mj2;KsWHqta;R1x=[U38N.%/%:4N,b33,yNWM_ZDYA:f,l691
     A106HZo HC2018 04 15)AHYv%^`*RN29jyLvxUTK:hJtc`o0CjX`J/?bI#;w5Tg4Z=f5K8P691
     A106HZo HC2018 04 159J40KDSpWmt@f\iiQf$_-8@$%UPq+ig/F!sKy'uVtov;,?*]_cwl691
     A106HZo "C2018 04 15U=q4L!+2DLAj';p'Bk7p;heG-p^m3[9hRd#%ebk0ifTp'$w#p5N1G40
     A106HZo "C2018 04 15Wm2d=p1PRK?*ivcU^T?MAsxxuZHdb3AUE`s;q#GvB,frou1$:8ygG40
     A106HZo KC2018 04 156U?25APQTLaSf4I77p44T,LO=PCVOdl**XtKc%Z5f3U6l8-Zc425J22
     A106HZo KC2018 04 15=P?:`n%RS/e'4N,n=M\r'rd?YEyw322QRkJ.-Ys4H!uHRjO%UI8TJ22
     A106HZo "C2018 04 15H5A4HLPTrRTBaV4P$6%tT'MEW,TZDb\4)q60Gj(TxJ;nOE*e$%t,G40
     A106HZo KC2018 04 15,s=lMwji3$L*:\,^d`75!+o**J/YDo?=21D/!gBZ9'Nv3g`sXON=J22
     A106HZo KC2018 04 16EXHy\1XZwwlbuUcbQwXLRE98qhF4g%6f;!DB[usM]I\14xgl$?8=W96
     A106HZo KC2018 04 1620hTWA6m-QH+M*G1=Jn=[(o#Nsvfj.QXb.5)x\j)*uW4!Xr(nj=PW96
     A106HZo KC2018 04 16_t$3qEWYv6B^%%\aJeEEvZ!T4s6(c.X#(\jy'GYW]U;4QW^q#^m7W96
     A106HZo 6C2018 04 16_K2lSveS)!C\)jo:(JVD9-Vw$Y5Lpt(A-tN]u9jX:3:wW08_4H^MQ62
     A106HZo 6C2018 04 16Un%4M::wiBPpFgk_WISj+!(C;kSDGIht=\q`$i6u5#@N4D[XfZDcQ62
     A106HZo 6C2018 04 16u`.N*/u-QI%4telcVAR3bH`aZ(:Fki`qEcFRno1(iQO,ap^t2vrWQ62
     A106HZo KC2018 04 16NbKtS;5-fZJ3f?\x!OP26!Kd3ia`Irh1w=?8RLY2wlxp(vq.%uo#C10
     A106HZo KC2018 04 16FZjiu*9Gs$D6C7hppGR=DOhS.j($G(88seeq3vd4oiX_2oM\?'][K38
     A106HZo KC2018 04 16ZTcC3K3oO[wAMH.I3B?VUXBJ,YDg%!q_:Lj'usr;iu#m.Ff!D`%PC10
     A106HZo  C2018 04 16sIr6)MaBlUI6\D/S=$Bl(5(!r)F2bP,fBoP]kv8:2N_u'VT$H6mIJ43
     A106HZo KC2018 04 16N!o`=yl)VhR,KD(=^nlwiM-CQ/3EeQH9,qJpl-[`2`*n$BJt,w')C10
     A106HZo KC2018 04 16)7=(VHPp/Gp3q@xwd8d3-Of'5=bsSj(0lX!YPhQl/)jim(TZx;0BK38
     A106HZo  C2018 04 16y5^r68bUQ(0dXy;JbxnQFP+(jFBj6[bLM%jO4u1D`iCUm_T7Fv)wJ43
     A106HZo  C2018 04 16q)s;?T#k'\60p1A;qd8'Xx[Ni[Ne;Wbfa6'D_rLAb\8sX-EByLTQJ43
     A106HZo  C2018 04 16-(@BW`7h$O8+0]D(cfjyX=W?brhTJO7DqH*c6-gfELP\q2E7VEIsJ43
     A106HZo KC2018 04 16VB6V:$ed./YJmB`/\V\-h\xD[Gr7C.n]fYt[eT_XvEY`3v\o)%+'K38
     A106HZo  C2018 04 16#f(u$K)LbJ_dD@ORYbO$A5^.1uWncO#O1y-6\Yx,c+8l]qT2PO!4W85
     A106HZo  C2018 04 16]fco4cX=A-NtodVN==mZH+L_W[L-dMun_q(OC6Nq+m(Z0E'jGfp,W85
     A106HZo  C2018 04 16w+X^p`ZrTsi6OrjM.?DnfL(PK/@LOjYMvk1lQE_r-PH%@ug9?5%FW85
     A106HZo KC2018 04 17=UKOx0@W]pHHTnZmfgC4FcgW]#7)tFTUvRepcH@fp\tg+)es))]J850
     A106HZo KC2018 04 17:t'Q#x1WNBD[DdG:Fu3cE(k(1(R%ZWY6/EG]ci[D3yF'EA:a^2`f850
     A106HZo KC2018 04 17XBQ:NW=bhPxwuE4^ho]Un]7mX+.=rH]PDijra[B83?33-L!/1JlH850
     A106HZo MC2018 04 17q$S%A%'YUKwV;XxSF=AYJm4VE*G!UZZa[6f7jcm+vk9BbZ!fM5F)Q62
     A106HZo MC2018 04 175P+\Q17egrbl9R/`7+QP'm0(Y7r%t-/YC:k[%2-_5oQN!;58@C(4Q62
     A106HZo MC2018 04 17S0GE\M?i6y3QDH0VUpk$!t%/q=):E=H/emll25(e3/$D@Y:1];+XQ62
     A106HZo MC2018 04 17n4OxNNov]ZC)0?cuuv_@%3Z6KPvgbD!7B*elZ$,-4%pcTFHTAMBU246
     A106HZo MC2018 04 17m+nZm86^5@I'T-XfnFEdye2.,:P;2CGZ#:LmSa3VBh\*Hx!mqeG\246
     A106HZo KC2018 04 17QUBE_]1(^k_SrS,3@bVby:=G8o/]pEhKAhdYSlqy+Jq80*Ys:urTI47
     A106HZo KC2018 04 178sG0B0m806=QX'd1M60Y`'qq2*Dp[C(Of8vXHfvTDWrV+.@IHit4I47
     A106HZo KC2018 04 18t:ThOr1W!QpR0r,L==yMH-mfVoVP)*Hx^6M0+2SUc'6I.SgNEOCPI47

Station data:
(246) Klet Observatory-KLENOT  (N48.863293 E14.288100)  Czech Republic.
   1.06-m KLENOT telescope.
(691) Steward Observatory, Kitt Peak - Spacewatch  (N31.957971 W111.599000)
   US/Arizona.  Observer J. V. Scotti. 0.9-m f/3 reflector + CCD.
(850) Cordell-Lorenz Observatory, Sewanee  (N35.204094 W85.919800)
   US/Tennessee. 0.3-m Schmidt-Cassegrain.
(C10) Maisoncelles  (N48.717713 E3.426220)  France.
(F51) Pan-STARRS 1, Haleakala  (N20.707235 W156.255910)  US/Hawaii.
   Observers N. Primak, A. Schultz, S. Watters, J. Thiel, T. Goggia. Measurer
   PS1 Science Consortium. 1.8-m Ritchey-Chrétien + CCD.
(G40) Slooh.com Canary Islands Observatory  (N28.299720 W16.508260)  Canary
   Islands (Spain).  Observers G. Gašparović, Y. Chen. 0.43-m f/6.8 Corrected
   Dall-Kirkham + CCD.
(I47) Pierre Auger Observatory, Malargüe  (S35.495442 W69.449700)  Argentina.
(J22) Tacande Observatory, La Palma  (N28.641561 W17.867650)  Canary Islands
   (Spain).
(J43) Oukaïmeden Observatory, Marrakech  (N31.206440 W7.866460)  Morocco.
   Observer C. Rinner. Measurers C. Rinner, M. Ory. 0.5-m f/3 reflector + CCD.
(K38) M57 Observatory, Saltrio  (N45.522304 E8.551100)  Italy.
(K88) GINOP-KHK, Piszkéstető  (N47.917622 E19.893600)  Hungary.  Observer K.
   Sárneczky. 0.60-m Schmidt + CCD.
(Q62) iTelescope Observatory, Siding Spring  (S31.273289 E149.064420)
   Australia/NSW. 0.50-m f/6.8 astrograph + CCD + focal reducer, 0.70-m f/6.6
   astrograph + CCD.
(T05) ATLAS-HKO, Haleakala  (N20.707573 W156.257010)  US/Hawaii.  Observers
   L. Denneau, A. Heinze, H. Weiland, B. Stalder, J. Tonry, A. Sherstyuk.
   Measurers L. Denneau, A. Heinze, J. Tonry. 0.5-m f/2.0 Schmidt + CCD.
(U69) iTelescope SRO Observatory, Auberry  (N37.070390 W119.413000)
   US/California. 0.61-m f/6.5 astrograph + CCD.
(W85) Cerro Tololo-LCO A  (S30.167407 W70.804810)  Chile.  Observers T.
   Lister, S. Greenstreet, E. Gomez. Measurer T. Lister. 1.0-m f/8
   Ritchey-Chrétien + CCD.
(W88) Slooh.com Chile Observatory, La Dehesa  (S33.269128 W70.534300)  Chile.
   0.35-m f/11 Schmidt-Cassegrain + CCD.
(W96) CAO, San Pedro de Atacama (since 2013)  (S22.953491 W68.179940)  Chile.

Orbital elements:  A106HZo
   Perihelion 2018 Jul 2.699781 +/- 0.00806 TT = 16:47:41 (JD 2458302.199781)
Epoch 2018 Apr 18.0 TT = JDT 2458226.5                        AutoNEOCP
M 346.64155 +/- 0.0015              (J2000 ecliptic)
n   0.17646608 +/- 4.55e-6          Peri.  249.03162 +/- 0.0034
a   3.14795525 +/- 5.42e-5          Node   319.56926 +/- 0.00023
e   0.2901015 +/- 1.14e-5           Incl.   24.69519 +/- 0.00030
P   5.59                   H 15.9   G  0.15   U  4.5  
q 2.23472868 +/- 3.49e-5    Q 4.06118181 +/- 9.49e-5
From 67 observations 2017 Oct. 30-2018 Apr. 18; mean residual 0".44
Residuals in arcseconds: 
171030 F51  .16+  .06+    180414 G40  .26+  .04-    180416 J43  .25+  .18-    
171030 F51  .02+  .05+    180414 G40  .56-  .32+    180416 C10  .04-  .02-    
171030 F51  .18-  .07-    180414 G40  .43+  .04-    180416 K38  .07+  .08+    
180112 F51  .03-  .05-    180415 W88  .60+  .38-    180416 J43  .28+  .03-    
180112 F51  .14+  .11-    180415 W88  .01-  .04-    180416 J43  .25-  .18-    
180112 F51  .13-  .22+    180415 691  .10-  .25+    180416 J43  .50+  .14-    
180112 F51  .06-  .06-    180415 691  .21-  .18+    180416 K38  .59-  .20+    
180413 T05  .75+  .34-    180415 691  .29-  .10+    180416 W85  .06+  .02-    
180413 T05  .56+  .17-    180415 G40  .01-  .18+    180416 W85  .01+  .12-    
180413 T05  .29-  .52-    180415 G40  .06-  .33-    180416 W85  .32-  .33-    
180413 T05  .86+  .07+    180415 J22  .60+  .04+    180417 850  .04+  .85+    
180413 T05  .21-  .37-    180415 J22  1.6-  .01-    180417 850  .30+  .76+    
180413 T05  1.2-  .21+    180415 G40  .15+  .16+    180417 850  .74-  .67+    
180414 691  .10-  .18+    180415 J22  .30-  .06-    180417 Q62  .35+  .23+    
180414 691  .16-  .07+    180416 W96  .04-  .14+    180417 Q62  .32-  .10-    
180414 691  .09-  .24+    180416 W96  .01+  .15+    180417 Q62  .01+  .12-    
180414 U69  .64-  .10+    180416 W96  .13-  .04+    180417 246  .08-  .86-    
180414 U69  .60-  .00     180416 Q62  .07+  .11+    180417 246  1.2-  .32+    
180414 U69  .70-  .09+    180416 Q62  .05-  .02-    180417 I47  .60+  .42-    
180414 K88  .79+  .54-    180416 Q62  .10+  .17-    180417 I47  .15+  .07-    
